Regional Weather Roundup
Issued by NWS Albany, NY

Home | Current Version | Previous Version | Text Only | Print | Product List | Glossary On
Versions: 1 2 3 4 5 6 7 8 9 10 11 12 13 14 15 16 17 18 19 20 21 22 23 24 25 26 27 28 29 30 31 32 33 34 35 36 37 38 39 40 41 42 43 44 45 46 47 48 49 50
000
ASUS41 KALY 091610
RWRALY

NEW YORK STATE HOURLY WEATHER ROUNDUP
NATIONAL WEATHER SERVICE ALBANY NY
1100 AM EST FRI DEC 09 2016

NOTE: "FAIR" INDICATES FEW OR NO CLOUDS BELOW 12,000 FEET WITH NO
SIGNIFICANT WEATHER AND/OR NO OBSTRUCTIONS TO VISIBILITY.

NYZ032-033-038>043-046>054-057>066-NYZ062>081-082-084-091700-
EAST


CITY           SKY/WX    TMP DP  RH WIND       PRES   REMARKS
ALBANY         MOSUNNY   30  15  53 NW15G25   30.07R WCI  19
GLENS FALLS    PTSUNNY   30  12  47 NW9       30.05R WCI  22
POUGHKEEPSIE   CLOUDY    37  15  40 W18G28    30.07F WCI  27
NEWBURGH       MOSUNNY   34  21  60 NW17G29   30.09S WCI  23
MONTGOMERY     PTSUNNY   34  20  56 NW13G22   30.08S WCI  25
WHITE PLAINS   PTSUNNY   36  18  48 NW18G26   30.07S WCI  26
ISLIP          PTSUNNY   38  19  46 W21G28    30.08S WCI  28
NEW YORK CITY  PTSUNNY   39  20  46 NW18G28   30.11S WCI  30
CENTRAL PARK     N/A     39  19  45 MISG        N/A
$$

NYZ005>009-017-018-044>046-055-056-091700-
CENTRAL


CITY           SKY/WX    TMP DP  RH WIND       PRES   REMARKS
FULTON         CLOUDY    28  14  55 NW15      30.17R WCI  16
SYRACUSE       PTSUNNY   26  13  57 NW13      30.16R WCI  15
ROME           CLOUDY    24  15  68 NW15      30.15R WCI  11
ELMIRA         CLOUDY    31  14  49 W18G26    30.16R WCI  19
BINGHAMTON     SNOW      22  20  92 NW12G21   30.08S VSB 1/2 WCI  10
MONTICELLO     PTSUNNY   28  18  64 W17G28    30.06S WCI  16
$$

NYZ026>034-041>043-087-091700-
NORTH


CITY           SKY/WX    TMP DP  RH WIND       PRES   REMARKS
WATERTOWN      MOSUNNY   26  13  57 N14       30.16S WCI  14
FORT DRUM      NOT AVBL
OGDENSBURG     FAIR      29  14  54 NW12G22   30.12S WCI  19
MASSENA        SUNNY     25  12  58 W16G28    30.11R WCI  12
SARANAC LAKE   CLOUDY    18   9  68 W9G20     29.95S HAZE    WCI   7
PLATTSBURGH    CLOUDY    26  11  52 W10G17    30.03S WCI  16
$$

NYZ001>004-010>016-019>021-085-091700-
WEST


CITY           SKY/WX    TMP DP  RH WIND       PRES   REMARKS
NIAGARA FALLS  PTSUNNY   28  18  66 NW7       30.26S WCI  21
BUFFALO        FLURRIES  26  19  74 N10       30.25S WCI  16
DUNKIRK        MIX PCPN  29  18  63 NW10G20   30.28R WCI  20
JAMESTOWN      CLOUDY    25  19  80 NW12G17   30.19R WCI  14
WELLSVILLE     PTSUNNY   25  15  66 NW15G26   30.14R WCI  13
ROCHESTER      FLURRIES  27  13  55 NW17G24   30.22S WCI  14
PENN YAN       LGT SNOW  24  17  74 NW15G21   30.18R WCI  11
$$

             KEY
       WCI = WIND CHILL INDEX
       VSB = VISIBILITY
       HX  = HEAT INDEX
$$



USA.gov is the U.S. government's official web portal to all federal, state and local government web resources and services.